DW8016 Weather Reports


time (UTC)temp
C
wind
direction
speed
KPH
gust
KPH
rain 1hr
cm
rain 24hr
cm
rain mn
cm
humidity
%
barometer
mb
20260509061006 15 232 4.8 16.1 0.00 0.00 0.00 52 1010.9
20260509060028 16 160 4.8 16.1 0.00 0.00 0.00 52 1010.9
20260509054959 16 177 3.2 12.9 0.00 0.00 0.00 51 1010.9
20260509053946 16 253 4.8 12.9 0.00 0.00 0.00 51 1011.0
20260509051822 15 217 4.8 12.9 0.00 0.00 0.00 52 1011.0
20260509050811 15 198 3.2 14.5 0.00 0.00 0.00 52 1011.0
20260509045816 15 182 3.2 14.5 0.00 0.00 0.00 53 1010.9
20260509044743 15 196 1.6 9.7 0.00 0.00 0.00 55 1011.0
20260509043736 15 136 3.2 11.3 0.00 0.00 0.00 54 1011.0
20260509042716 15 166 1.6 11.3 0.00 0.00 0.00 54 1011.1
20260509041718 16 153 1.6 11.3 0.00 0.00 0.00 54 1011.1
20260509040715 16 163 3.2 12.9 0.00 0.00 0.00 52 1011.0
20260509035713 16 189 4.8 12.9 0.00 0.00 0.00 51 1011.1
20260509034715 16 189 3.2 14.5 0.00 0.00 0.00 51 1011.2
20260509032607 16 190 3.2 12.9 0.00 0.00 0.00 49 1011.1
20260509031624 16 189 3.2 11.3 0.00 0.00 0.00 49 1011.3
20260509030644 17 199 3.2 11.3 0.00 0.00 0.00 48 1011.4
20260509025657 17 147 3.2 9.7 0.00 0.00 0.00 48 1011.4
20260509024631 17 175 3.2 9.7 0.00 0.00 0.00 47 1011.4
20260509022537 17 184 1.6 8.0 0.00 0.00 0.00 46 1011.4
20260509021530 17 175 1.6 8.0 0.00 0.00 0.00 46 1011.3
20260509020502 17 175 1.6 8.0 0.00 0.00 0.00 45 1011.3
20260509014401 18 167 1.6 11.3 0.00 0.00 0.00 45 1011.1
20260509013351 18 188 3.2 11.3 0.00 0.00 0.00 44 1011.1
20260509012339 18 153 3.2 11.3 0.00 0.00 0.00 43 1011.2
20260509011306 18 188 3.2 11.3 0.00 0.00 0.00 43 1011.1
20260509010240 18 167 1.6 12.9 0.00 0.00 0.00 42 1011.0
20260509005206 19 205 4.8 12.9 0.00 0.00 0.00 41 1011.0
20260509004202 19 194 3.2 8.0 0.00 0.00 0.00 40 1010.9
20260509003200 20 217 3.2 12.9 0.00 0.00 0.00 39 1010.8
20260509002221 20 254 4.8 12.9 0.00 0.00 0.00 38 1010.8
20260509000147 20 258 3.2 12.9 0.00 0.00 0.00 37 1010.5
20260508235120 20 213 4.8 12.9 0.00 0.00 0.00 37 1010.4
20260508234128 20 172 3.2 11.3 0.00 0.00 0.00 36 1010.4
20260508233104 20 229 3.2 16.1 0.00 0.00 0.00 37 1010.4
20260508232127 20 188 6.4 16.1 0.00 0.00 0.00 36 1010.3
20260508231113 21 209 1.6 9.7 0.00 0.00 0.00 36 1010.3
20260508230048 21 205 6.4 16.1 0.00 0.00 0.00 35 1010.2
20260508225036 21 159 3.2 16.1 0.00 0.00 0.00 34 1010.0
20260508224016 21 190 3.2 9.7 0.00 0.00 0.00 31 1010.1
20260508222952 21 182 3.2 9.7 0.00 0.00 0.00 32 1010.0
20260508221958 21 244 3.2 12.9 0.00 0.00 0.00 32 1010.2
20260508220925 21 164 3.2 12.9 0.00 0.00 0.00 30 1010.2
20260508215934 22 275 1.6 0.0 0.00 0.00 0.00 30 1010.2
20260508211528 23 325 3.2 11.3 0.00 0.00 0.00 28 1010.2
20260508210506 23 190 3.2 12.9 0.00 0.00 0.00 28 1010.2
20260508205528 23 198 4.8 19.3 0.00 0.00 0.00 28 1010.2
20260508204536 23 221 6.4 19.3 0.00 0.00 0.00 29 1010.3
20260508203556 24 327 3.2 16.1 0.00 0.00 0.00 27 1010.4
20260508202619 23 264 3.2 12.9 0.00 0.00 0.00 28 1010.4
20260508201545 23 279 4.8 17.7 0.00 0.00 0.00 26 1010.5
20260508200545 23 335 6.4 20.9 0.00 0.00 0.00 27 1010.7
20260508195520 23 232 6.4 20.9 0.00 0.00 0.00 28 1010.7
20260508194508 23 205 8.0 17.7 0.00 0.00 0.00 27 1011.0
20260508193528 23 246 4.8 19.3 0.00 0.00 0.00 28 1011.0
20260508192542 23 211 6.4 19.3 0.00 0.00 0.00 27 1011.3
20260508191520 24 293 3.2 11.3 0.00 0.00 0.00 27 1011.4
20260508190522 24 211 3.2 16.1 0.00 0.00 0.00 27 1011.5
20260508185525 23 287 6.4 17.7 0.00 0.00 0.00 29 1011.8
20260508184534 23 300 4.8 17.7 0.00 0.00 0.00 27 1011.9
20260508183550 24 271 8.0 22.5 0.00 0.00 0.00 29 1012.0
20260508182559 23 274 4.8 22.5 0.00 0.00 0.00 27 1012.0
20260508181539 23 257 1.6 20.9 0.00 0.00 0.00 30 1012.0
20260508180524 23 260 8.0 20.9 0.00 0.00 0.00 28 1012.3
20260508174435 24 273 6.4 22.5 0.00 0.00 0.00 27 1012.3
20260508172323 23 269 3.2 12.9 0.00 0.00 0.00 28 1012.6
20260508171315 23 302 3.2 16.1 0.00 0.00 0.00 29 1012.7
20260508170321 23 291 6.4 16.1 0.00 0.00 0.00 29 1013.0
20260508165339 23 265 3.2 12.9 0.00 0.00 0.00 29 1013.1
20260508163211 23 309 8.0 20.9 0.00 0.00 0.00 29 1013.4
20260508161053 22 296 3.2 16.1 0.00 0.00 0.00 29 1013.7
20260508160019 23 250 4.8 16.1 0.00 0.00 0.00 29 1013.7
20260508155019 22 324 4.8 17.7 0.00 0.00 0.00 29 1013.8
20260508154033 22 338 4.8 20.9 0.00 0.00 0.00 29 1013.9
20260508153037 22 304 4.8 20.9 0.00 0.00 0.00 30 1014.1
20260508152046 22 284 1.6 12.9 0.00 0.00 0.00 30 1014.1
20260508151110 21 316 3.2 11.3 0.00 0.00 0.00 31 1014.3
20260508150049 21 309 1.6 14.5 0.00 0.00 0.00 31 1014.4
20260508143927 21 348 3.2 14.5 0.00 0.00 0.00 31 1014.5
20260508141817 20 280 1.6 11.3 0.00 0.00 0.00 34 1014.7
20260508140830 20 250 0.0 12.9 0.00 0.00 0.00 34 1014.7
20260508135801 20 245 3.2 12.9 0.00 0.00 0.00 33 1014.7
20260508134730 18 250 0.0 12.9 0.00 0.00 0.00 36 1014.8
20260508133736 18 279 3.2 12.9 0.00 0.00 0.00 35 1014.9
20260508132721 18 264 1.6 8.0 0.00 0.00 0.00 39 1015.0
20260508131647 17 331 1.6 6.4 0.00 0.00 0.00 39 1015.2
20260508130710 17 289 0.0 6.4 0.00 0.00 0.00 41 1015.0
20260508125649 17 309 1.6 6.4 0.00 0.00 0.00 42 1015.1
20260508124624 16 264 0.0 4.8 0.00 0.00 0.00 44 1015.1
20260508123634 15 262 0.0 1.6 0.00 0.00 0.00 47 1015.0
20260508121505 14 324 0.0 8.0 0.00 0.00 0.00 53 1014.9
20260508112034 7 320 0.0 0.0 0.00 0.00 0.00 85 1014.3
20260508111037 6 320 0.0 0.0 0.00 0.00 0.00 85 1014.2
20260508103750 6 320 0.0 0.0 0.00 0.00 0.00 86 1013.9
20260508102809 6 320 0.0 0.0 0.00 0.00 0.00 84 1013.8
20260508101742 6 320 0.0 0.0 0.00 0.00 0.00 83 1013.7
20260508100755 6 320 0.0 0.0 0.00 0.00 0.00 83 1013.6
20260508095819 6 320 0.0 0.0 0.00 0.00 0.00 81 1013.5
20260508092544 7 320 0.0 0.0 0.00 0.00 0.00 78 1013.4
20260508091522 7 320 0.0 0.0 0.00 0.00 0.00 77 1013.4
20260508090520 7 320 0.0 0.0 0.00 0.00 0.00 77 1013.3
20260508085453 8 320 0.0 0.0 0.00 0.00 0.00 80 1013.2
20260508083336 8 320 0.0 0.0 0.00 0.00 0.00 79 1013.0
20260508082334 8 320 0.0 0.0 0.00 0.00 0.00 79 1012.8
20260508081316 8 320 0.0 0.0 0.00 0.00 0.00 77 1012.8
20260508080304 8 320 0.0 0.0 0.00 0.00 0.00 78 1012.7
20260508075300 8 320 0.0 0.0 0.00 0.00 0.00 76 1012.5
20260508074302 9 320 0.0 0.0 0.00 0.00 0.00 76 1012.4
20260508073322 9 320 0.0 0.0 0.00 0.00 0.00 75 1012.3
20260508072311 10 320 0.0 0.0 0.00 0.00 0.00 76 1012.1
20260508070157 10 320 0.0 0.0 0.00 0.00 0.00 70 1011.9
20260508065210 11 320 0.0 0.0 0.00 0.00 0.00 70 1011.8
20260508064201 11 320 0.0 0.0 0.00 0.00 0.00 69 1011.6
20260508063200 11 320 0.0 0.0 0.00 0.00 0.00 69 1011.5
20260508062143 11 320 0.0 6.4 0.00 0.00 0.00 69 1011.4